Regional Weather Roundup
Issued by NWS

Home | Current Version | Previous Version | Graphics & Text | Print | Product List | Glossary On
Versions: 1 2 3 4 5 6 7 8 9 10 11 12 13 14 15 16 17 18 19 20 21 22 23 24 25 26 27 28 29 30 31 32 33 34 35 36 37 38 39 40 41 42 43 44 45 46 47 48 49 50
000
ASUS43 KLOT 270808
RWRIL

ILLINOIS REGIONAL WEATHER ROUNDUP
NATIONAL WEATHER SERVICE CHICAGO/ROMEOVILLE IL
200 AM CST MON FEB 27 2017

NOTE: "FAIR" INDICATES FEW OR NO CLOUDS BELOW 12,000 FEET WITH NO
SIGNIFICANT WEATHER AND/OR OBSTRUCTIONS TO VISIBILITY.

* THESE STATIONS ARE NOT UNDER NWS QUALITY CONTROL. THEY ALSO MAY NOT
  REPORT WEATHER SUCH AS PRECIPITATION OR FOG.

ILZ001-002-007-009-015-016-024-270900-
NORTHWEST ILLINOIS

CITY           SKY/WX    TMP DP  RH WIND       PRES   REMARKS
MOLINE         CLEAR     29  26  89 CALM      30.07R
$$

ILZ003-004-008-010-011-017-018-270900-
NORTH CENTRAL ILLINOIS

CITY           SKY/WX    TMP DP  RH WIND       PRES   REMARKS
ROCKFORD       PTCLDY    29  25  85 S3        30.10R
FREEPORT*      MOCLDY    26  23  89 CALM      30.09R
ROCHELLE*      CLOUDY    32  32  99 SW3       30.09R
DE KALB*       CLOUDY    34  31  90 S7        30.09R WCI  27
PERU*          CLEAR     33  24  69 SW8       30.10S WCI  26
$$

ILZ005-006-012>014-019>023-270900-
NORTHEAST ILLINOIS

CITY           SKY/WX    TMP DP  RH WIND       PRES   REMARKS
CHICAGO-OHARE  PTCLDY    34  24  67 CALM      30.08R
CHICAGO-MIDWAY PTCLDY    35  23  61 SW6       30.10R WCI  30
AURORA         PTCLDY    34  25  69 SW8       30.10R WCI  27
LANSING*       CLEAR     29  26  88 S6        30.12R WCI  23
JOLIET*        CLEAR     36  27  71 SW5       30.11R WCI  32
WAUKEGAN       CLEAR     31  29  92 CALM      30.08R
DUPAGE AIRPORT CLEAR     27  21  78 S7        30.08R WCI  19
KANKAKEE*      PTCLDY    30  24  77 CALM      30.14R
WHEELING       CLEAR     32  25  75 CALM      30.10R
MORRIS*        CLEAR     33  26  75 SW6       30.10R WCI  27
ROMEOVILLE*    PTCLDY    34  29  82 SW8       30.10R WCI  27
NORTHERLY ISL    N/A     38  24  57 SW5         N/A  WCI  34
$$

LMZ740>746-270900-
SOUTHERN LAKE MICHIGAN

STATION/POSITION SKY/WX   TEMP    WIND        PRES    VSBY  WAVE
                          AIR SEA DIR/SP/G                  HT/PER
                          (F)     (DEG/KT/KT) (MB)    (MI)  (FT/S)
HARRISON CRIB              40     250/ 13/ 14   N/A
BURNHAM HARBOR             38     210/  5/  8   N/A
CALUMET HARBOR             36     200/  7/  9 1018.8R
BURNS HARBOR               38     210/ 14/ 19 1020.0R
MICHIGAN CITY              38     190/ 14/ 17   N/A
$$

ILZ025>027-034>036-040-047-049-050-058-095>099-270900-
WEST-CENTRAL ILLINOIS

CITY           SKY/WX    TMP DP  RH WIND       PRES   REMARKS
QUINCY         MOCLDY    34  32  92 S5        30.07F WCI  30
GALESBURG*     PTCLDY    27  24  91 CALM        N/A
MACOMB*        CLEAR     30  27  90 CALM      30.11S
JACKSONVILLE*  CLOUDY    36  32  87 CALM      30.10S
PITTSFIELD*    MOCLDY    35  33  92 CALM      30.10S
$$

ILZ028>032-037-038-041>044-048-051>054-059>061-270900-
CENTRAL ILLINOIS

CITY           SKY/WX    TMP DP  RH WIND       PRES   REMARKS
PONTIAC        CLEAR     34  29  82 S8        30.13S WCI  27
BLOOMINGTON    PTCLDY    31  28  89 SW7       30.12F WCI  24
DECATUR        CLOUDY    32  27  81 CALM      30.13F
PEORIA         CLEAR     31  25  78 CALM      30.12R
LACON*         PTCLDY    34  28  81 S5        30.10S WCI  29
LINCOLN*       MOCLDY    28  26  91 CALM      30.13S
SPRINGFIELD    MOCLDY    36  31  82 CALM      30.13R
TAYLORVILLE    DRIZZLE   38  34  84 S3        30.12S
$$

ILZ033-039-045-046-055>057-062-063-270900-
EAST-CENTRAL ILLINOIS

CITY           SKY/WX    TMP DP  RH WIND       PRES   REMARKS
CHAMPAIGN      CLOUDY    35  27  72 CALM      30.14S
RANTOUL*       CLOUDY    32  26  78 S3        30.14S
MATTOON        CLOUDY    41  34  76 S5        30.13S
PARIS*         CLOUDY    41  33  75 SW3       30.16F
$$

ILZ079-100>102-270900-
SOUTHWEST ILLINOIS

CITY           SKY/WX    TMP DP  RH WIND       PRES   REMARKS
ALTON          CLOUDY    39  35  84 CALM      30.11S
BELLEVILLE     CLOUDY    41  37  87 CALM      30.10S
CAHOKIA*       CLOUDY    41  36  82 CALM      30.10S
SPARTA*        CLOUDY    42  33  70 SE5       30.12S
$$

ILZ064>066-069>071-074>076-080>082-084>086-088>090-092>094-270900-
SOUTH-CENTRAL ILLINOIS

CITY           SKY/WX    TMP DP  RH WIND       PRES   REMARKS
CARBONDALE     LGT RAIN  42  34  73 SE7       30.14S
CAIRO*         DRIZZLE   46  41  82 E3        30.13F
EFFINGHAM*     CLOUDY    40  36  85 E3        30.16S
MARION         LGT RAIN  41  34  75 SE3       30.15S
MT. VERNON     CLOUDY    42  36  79 S5        30.15R
CENTRALIA*     CLOUDY    42  36  77 SE6       30.13R
SALEM*         CLOUDY    43  35  73 E3        30.13S
METROPOLIS*    LGT RAIN  46  38  73 CALM      30.14F
$$

ILZ067-068-072-073-078-083-087-091-270900-
SOUTHEAST ILLINOIS

CITY           SKY/WX    TMP DP  RH WIND       PRES   REMARKS
LAWRENCEVILLE  CLOUDY    43  34  70 NE5       30.17S
FLORA*         CLOUDY    42  36  79 E6        30.15S
FAIRFIELD*     CLOUDY    42  35  77 CALM      30.15S
HARRISBURG*    RAIN      44  36  74 CALM      30.17S
ROBINSON*      CLOUDY    40  36  85 SE3       30.18S
CARMI*         CLOUDY    43  34  72 CALM      30.16S
$$

ABBREVIATIONS USED IN REMARKS
   TC - TEMPERATURE IN CELSIUS
  WCI - WIND CHILL INDEX
   HX - HEAT INDEX
  VSB - VISIBILITY
$$





USA.gov is the U.S. government's official web portal to all federal, state and local government web resources and services.